Starlink 30547

operational
NORAD ID: 58044 Int'l Des: 2023-156 Owner: SPXS Country: US Constellation: starlink
LEOCIRCULAR

关于 Starlink 30547

正在加载描述...

实时位置

正在加载3D地球...

即将过境

高度历史

Altitude vs Time

uPlot chart will show altitude changes over time

两行轨道根数

1 58044U 23156S 25351.86219036 .00000437 00000-0 26883-4 0 9994
2 58044 53.1581 188.2916 0001231 102.5062 257.6076 15.30176615122502
Epoch: Dec 17, 2025 • Age: 14 hours

当前状态

高度 494.6 km
速度 7.62 km/s
星下点 -53.17°S, 153.34°W
发射日期 Oct 9, 2023
运行时间 2.1 years
类型 internet

技术详情

分类 Payload
质量 730.00 kg
干质量 700.00 kg
总质量 730.00 kg
长度 0.30 m
直径 4.10 m
跨度 29.00 m
形状 Box + pan
制造商 SPXS
平台类型 Starlink V2M
阶段状态 In Orbit
所有者/国家 SPXS/US

大型星座

Loading constellations...